Time,TemperatureF,DewpointF,PressureIn,WindDirection,WindDirectionDegrees,WindSpeedMPH,WindSpeedGustMPH,Humidity,HourlyPrecipIn,Conditions,Clouds,dailyrainin,SoftwareType,DateUTC
2013-03-30 08:02:00,32.0,22.0,30.03,SW,229,2.0,6.0,66,0.00,,,0.00,,2013-03-30 13:02:00,
2013-03-30 08:12:00,32.0,22.0,30.03,SW,229,2.0,6.0,66,0.00,,,0.00,,2013-03-30 13:12:00,
2013-03-30 08:22:00,33.0,23.0,30.03,SW,224,2.0,6.0,65,0.00,,,0.00,,2013-03-30 13:22:00,
2013-03-30 08:32:00,33.0,23.0,30.03,SSE,155,1.0,3.0,65,0.00,,,0.00,,2013-03-30 13:32:00,
2013-03-30 08:42:00,33.0,23.0,30.03,SSE,155,1.0,3.0,65,0.00,,,0.00,,2013-03-30 13:42:00,
2013-03-30 08:52:00,33.0,23.0,30.02,SE,132,2.0,4.0,66,0.00,,,0.00,,2013-03-30 13:52:00,
2013-03-30 09:02:00,34.0,24.0,30.01,SSE,163,1.0,4.0,66,0.00,,,0.00,,2013-03-30 14:02:00,
2013-03-30 09:11:00,34.0,24.0,30.01,SSE,163,1.0,4.0,66,0.00,,,0.00,,2013-03-30 14:11:00,
2013-03-30 09:23:00,35.0,24.0,29.99,SSE,148,3.0,6.0,64,0.00,,,0.00,,2013-03-30 14:23:00,
2013-03-30 09:32:00,35.0,24.0,29.98,South,186,2.0,10.0,63,0.00,,,0.00,,2013-03-30 14:32:00,
2013-03-30 09:42:00,35.0,24.0,29.98,South,186,2.0,10.0,63,0.00,,,0.00,,2013-03-30 14:42:00,
2013-03-30 09:52:00,35.0,24.0,29.98,SE,135,3.0,14.0,64,0.00,,,0.00,,2013-03-30 14:52:00,
2013-03-30 10:02:00,35.0,24.0,29.97,SE,143,5.0,11.0,64,0.00,,,0.00,,2013-03-30 15:02:00,
2013-03-30 10:12:00,35.0,24.0,29.97,SE,143,5.0,11.0,64,0.00,,,0.00,,2013-03-30 15:12:00,
2013-03-30 10:22:00,35.0,24.0,29.97,South,190,4.0,10.0,64,0.00,,,0.00,,2013-03-30 15:22:00,
2013-03-30 10:33:00,36.0,25.0,29.96,South,180,4.0,12.0,63,0.00,,,0.00,,2013-03-30 15:33:00,
2013-03-30 10:43:00,36.0,25.0,29.96,South,180,4.0,12.0,63,0.00,,,0.00,,2013-03-30 15:43:00,
2013-03-30 10:52:00,36.0,25.0,29.96,SW,225,4.0,13.0,63,0.00,,,0.00,,2013-03-30 15:52:00,
2013-03-30 11:03:00,36.0,23.0,29.96,SW,216,5.0,13.0,60,0.00,,,0.00,,2013-03-30 16:03:00,
2013-03-30 11:13:00,36.0,23.0,29.96,SW,229,9.0,18.0,60,0.00,,,0.00,,2013-03-30 16:13:00,
2013-03-30 11:23:00,36.0,23.0,29.96,SW,229,9.0,18.0,60,0.00,,,0.00,,2013-03-30 16:23:00,
2013-03-30 11:33:00,36.0,24.0,29.97,WSW,248,7.0,13.0,61,0.00,,,0.00,,2013-03-30 16:33:00,
2013-03-30 11:43:00,36.0,24.0,29.97,WSW,248,7.0,13.0,61,0.00,,,0.00,,2013-03-30 16:43:00,
2013-03-30 11:52:00,34.0,27.0,29.97,SW,222,8.0,17.0,76,0.00,,,0.00,,2013-03-30 16:52:00,
2013-03-30 12:02:00,32.0,29.0,29.96,South,169,4.0,16.0,89,0.00,,,0.00,,2013-03-30 17:02:00,
2013-03-30 12:13:00,32.0,29.0,29.96,South,169,4.0,16.0,89,0.00,,,0.00,,2013-03-30 17:13:00,
2013-03-30 12:22:00,32.0,30.0,29.96,ESE,118,4.0,10.0,92,0.00,,,0.00,,2013-03-30 17:22:00,
2013-03-30 12:32:00,32.0,30.0,29.94,SW,224,4.0,9.0,93,0.00,,,0.00,,2013-03-30 17:32:00,
2013-03-30 12:42:00,32.0,30.0,29.94,SW,224,4.0,9.0,93,0.00,,,0.00,,2013-03-30 17:42:00,
2013-03-30 12:52:00,32.0,30.0,29.93,South,173,5.0,14.0,93,0.00,,,0.00,,2013-03-30 17:52:00,
2013-03-30 13:03:00,32.0,30.0,29.92,SSE,153,5.0,10.0,94,0.00,,,0.00,,2013-03-30 18:03:00,
2013-03-30 13:12:00,32.0,30.0,29.92,SSE,153,5.0,10.0,94,0.00,,,0.00,,2013-03-30 18:12:00,
2013-03-30 13:22:00,32.0,30.0,29.92,SSE,153,5.0,10.0,94,0.00,,,0.00,,2013-03-30 18:22:00,
2013-03-30 13:32:00,33.0,31.0,29.90,SSE,148,6.0,13.0,94,0.00,,,0.00,,2013-03-30 18:32:00,
2013-03-30 13:42:00,33.0,31.0,29.90,SSE,148,6.0,13.0,94,0.00,,,0.00,,2013-03-30 18:42:00,
2013-03-30 13:53:00,33.0,31.0,29.89,SW,215,5.0,14.0,94,0.00,,,0.00,,2013-03-30 18:53:00,
2013-03-30 14:03:00,33.0,31.0,29.88,South,188,8.0,17.0,94,0.00,,,0.00,,2013-03-30 19:03:00,
2013-03-30 14:13:00,33.0,31.0,29.88,South,188,8.0,17.0,94,0.00,,,0.00,,2013-03-30 19:13:00,
2013-03-30 14:22:00,33.0,31.0,29.88,SW,219,6.0,11.0,94,0.00,,,0.00,,2013-03-30 19:22:00,
2013-03-30 14:32:00,33.0,31.0,29.87,ENE,58,2.0,10.0,94,0.00,,,0.00,,2013-03-30 19:32:00,
2013-03-30 14:42:00,33.0,31.0,29.87,ENE,58,2.0,10.0,94,0.00,,,0.00,,2013-03-30 19:42:00,
2013-03-30 14:52:00,33.0,31.0,29.86,SW,214,4.0,10.0,93,0.00,,,0.00,,2013-03-30 19:52:00,
2013-03-30 15:02:00,33.0,31.0,29.85,South,187,2.0,8.0,94,0.00,,,0.00,,2013-03-30 20:02:00,
2013-03-30 15:12:00,33.0,31.0,29.85,South,187,2.0,8.0,94,0.00,,,0.00,,2013-03-30 20:12:00,
2013-03-30 15:22:00,33.0,31.0,29.85,South,179,2.0,6.0,94,0.00,,,0.00,,2013-03-30 20:22:00,
2013-03-30 15:32:00,34.0,32.0,29.84,SSE,156,2.0,7.0,94,0.00,,,0.00,,2013-03-30 20:32:00,
2013-03-30 15:42:00,34.0,32.0,29.84,SSE,156,2.0,7.0,94,0.00,,,0.00,,2013-03-30 20:42:00,
2013-03-30 15:52:00,34.0,32.0,29.84,SSW,204,1.0,5.0,93,0.00,,,0.00,,2013-03-30 20:52:00,
2013-03-30 16:02:00,34.0,32.0,29.83,SW,219,2.0,7.0,94,0.00,,,0.00,,2013-03-30 21:02:00,
2013-03-30 16:12:00,34.0,32.0,29.83,SW,219,2.0,7.0,94,0.00,,,0.00,,2013-03-30 21:12:00,
2013-03-30 16:22:00,35.0,33.0,29.84,SW,231,5.0,11.0,93,0.00,,,0.00,,2013-03-30 21:22:00,
2013-03-30 16:34:00,35.0,33.0,29.84,WSW,253,6.0,15.0,93,0.04,,,0.04,,2013-03-30 21:34:00,
2013-03-30 16:43:00,35.0,33.0,29.84,WSW,253,6.0,15.0,93,0.04,,,0.04,,2013-03-30 21:43:00,
2013-03-30 16:52:00,35.0,33.0,29.84,WSW,253,6.0,15.0,93,0.04,,,0.04,,2013-03-30 21:52:00,
2013-03-30 17:03:00,35.0,33.0,29.84,WSW,253,6.0,15.0,93,0.04,,,0.04,,2013-03-30 22:03:00,
2013-03-30 17:23:00,35.0,33.0,29.82,SW,228,2.0,9.0,93,0.10,,,0.11,,2013-03-30 22:23:00,
2013-03-30 17:33:00,35.0,33.0,29.82,SSW,211,3.0,10.0,93,0.08,,,0.13,,2013-03-30 22:33:00,
2013-03-30 17:43:00,35.0,33.0,29.82,SSW,211,3.0,10.0,93,0.08,,,0.13,,2013-03-30 22:43:00,
2013-03-30 17:53:00,35.0,33.0,29.82,SSE,168,2.0,4.0,94,0.08,,,0.15,,2013-03-30 22:53:00,
2013-03-30 18:02:00,35.0,33.0,29.82,SW,229,2.0,6.0,94,0.06,,,0.16,,2013-03-30 23:02:00,
2013-03-30 18:12:00,35.0,33.0,29.82,SW,229,2.0,6.0,94,0.06,,,0.16,,2013-03-30 23:12:00,
2013-03-30 18:22:00,35.0,33.0,29.82,SSW,203,2.0,4.0,94,0.05,,,0.17,,2013-03-30 23:22:00,
2013-03-30 18:32:00,35.0,33.0,29.81,SSW,209,2.0,4.0,94,0.05,,,0.18,,2013-03-30 23:32:00,
2013-03-30 18:42:00,35.0,33.0,29.81,SSW,209,2.0,4.0,94,0.05,,,0.18,,2013-03-30 23:42:00,
2013-03-30 18:52:00,35.0,33.0,29.81,SSW,208,1.0,5.0,94,0.05,,,0.20,,2013-03-30 23:52:00,
2013-03-30 19:02:00,35.0,34.0,29.81,South,188,2.0,5.0,95,0.05,,,0.21,,2013-03-31 00:02:00,
2013-03-30 19:12:00,35.0,34.0,29.81,South,188,2.0,5.0,95,0.05,,,0.21,,2013-03-31 00:12:00,
2013-03-30 19:22:00,35.0,34.0,29.80,SSW,207,2.0,4.0,95,0.05,,,0.22,,2013-03-31 00:22:00,
2013-03-30 19:32:00,35.0,34.0,29.80,SSW,208,2.0,5.0,96,0.05,,,0.23,,2013-03-31 00:32:00,
2013-03-30 19:42:00,35.0,34.0,29.80,SSW,208,2.0,5.0,96,0.05,,,0.23,,2013-03-31 00:42:00,
2013-03-30 19:52:00,35.0,34.0,29.80,SW,221,2.0,3.0,96,0.04,,,0.24,,2013-03-31 00:52:00,
2013-03-30 20:02:00,35.0,34.0,29.79,WSW,253,2.0,4.0,96,0.04,,,0.25,,2013-03-31 01:02:00,
2013-03-30 20:12:00,35.0,34.0,29.79,WSW,253,2.0,4.0,96,0.04,,,0.25,,2013-03-31 01:12:00,
2013-03-30 20:22:00,35.0,34.0,29.79,SW,218,0.0,3.0,96,0.03,,,0.25,,2013-03-31 01:22:00,
2013-03-30 20:32:00,35.0,34.0,29.79,SW,226,0.0,1.0,96,0.03,,,0.26,,2013-03-31 01:32:00,
2013-03-30 20:42:00,35.0,34.0,29.79,SW,226,0.0,1.0,96,0.03,,,0.26,,2013-03-31 01:42:00,
2013-03-30 20:52:00,35.0,34.0,29.79,SW,226,0.0,1.0,96,0.02,,,0.26,,2013-03-31 01:52:00,
2013-03-30 21:02:00,35.0,34.0,29.78,WSW,248,0.0,1.0,96,0.02,,,0.27,,2013-03-31 02:02:00,
2013-03-30 21:13:00,35.0,34.0,29.78,WSW,248,0.0,1.0,96,0.02,,,0.27,,2013-03-31 02:13:00,
2013-03-30 21:22:00,35.0,34.0,29.78,WSW,248,0.0,0.0,96,0.02,,,0.27,,2013-03-31 02:22:00,
2013-03-30 21:32:00,35.0,34.0,29.78,SW,233,0.0,1.0,96,0.02,,,0.28,,2013-03-31 02:32:00,
2013-03-30 21:42:00,35.0,34.0,29.78,SW,233,0.0,1.0,96,0.02,,,0.28,,2013-03-31 02:42:00,
2013-03-30 21:52:00,35.0,34.0,29.77,SW,236,1.0,2.0,97,0.02,,,0.28,,2013-03-31 02:52:00,
2013-03-30 22:02:00,34.0,33.0,29.77,SW,215,1.0,1.0,96,0.01,,,0.28,,2013-03-31 03:02:00,
2013-03-30 22:12:00,34.0,33.0,29.77,SW,215,1.0,1.0,96,0.01,,,0.28,,2013-03-31 03:12:00,
2013-03-30 22:22:00,34.0,33.0,29.77,SW,224,1.0,2.0,97,0.01,,,0.28,,2013-03-31 03:22:00,
2013-03-30 22:33:00,34.0,33.0,29.76,WSW,240,1.0,2.0,97,0.01,,,0.28,,2013-03-31 03:33:00,
2013-03-30 22:43:00,34.0,33.0,29.76,WSW,240,1.0,2.0,97,0.01,,,0.28,,2013-03-31 03:43:00,
2013-03-30 22:53:00,34.0,33.0,29.76,West,260,1.0,2.0,97,0.01,,,0.28,,2013-03-31 03:53:00,
2013-03-30 23:03:00,33.0,-99.9,29.75,WSW,238,1.0,2.0,97,0.01,,,0.28,,2013-03-31 04:03:00,
2013-03-30 23:13:00,33.0,32.0,29.75,WSW,238,1.0,2.0,97,0.01,,,0.28,,2013-03-31 04:13:00,
2013-03-30 23:23:00,32.0,31.0,29.75,West,273,1.0,1.0,97,0.00,,,0.28,,2013-03-31 04:23:00,
2013-03-30 23:32:00,33.0,32.0,29.75,WSW,252,1.0,4.0,97,0.00,,,0.28,,2013-03-31 04:32:00,
2013-03-30 23:42:00,33.0,32.0,29.75,WSW,252,1.0,4.0,97,0.00,,,0.28,,2013-03-31 04:42:00,
2013-03-30 23:52:00,33.0,32.0,29.74,WSW,245,1.0,2.0,97,0.00,,,0.28,,2013-03-31 04:52:00,